DELTA 1 DEB, 13535

Orbit data source: Space-Track

DELTA 1 DEB, 13535 is space debris in SSO originally from a launch on Thu, 29 Jul 1976 UTC launched from the Air Force Western Test Range (AFWTR). Debris objects in space refer to the collection of defunct objects orbiting the Earth. Examples of debris include non-operational satellites, rocket bodies, and fragments generated from explosions, collisions, or faulty payload assembly.

Loading next visibility...
Identifier
13535, 1976-077EH
Orbit
SSO
Country
Flag of USUS
Related business
Manufacturer
Unknown
Mission
Spacecraft
Bus & Motor
Unknown
Mass
Unknown
Launch date (UTC)
1976-07-29 (50 years ago)
Launch vehicle
Unknown
Launch site
Air Force Western Test Range (AFWTR)
Object type
Payload
Rocket body
Debris
Shape & HBR
Unknown shape, 0.2 m
Radar Cross Section
Small (<0.1 m²)

Expand to show TLE details & history
Last TLE update: 16 hours ago

TLE from 16 hours ago
0 DELTA 1 DEB
1 13535U 76077EH  26067.88069541 -.00000017  00000-0  20032-3 0  9995
2 13535 101.7564  43.4581 0023543  95.6153 293.0418 12.39100946136376
Epoch: 2026-03-08T21:08Z
TLE epoch observation values (Epoch: 2026-03-08T21:08:12.083Z)
Latitude
27.80071°
Longitude
-86.44277°
Altitude
1,506.292 km
Speed
7.117 km/s
True Right ascension
02h 28m 45s
True Declination
27° 40' 21"
Sunlit
Object was in daylight at epoch
Visualization orbit readout
Latitude
Unknown
Longitude
Unknown
Altitude
Unknown
Speed
Unknown
Apparent Right ascension
Unknown
Apparent Declination
Unknown
Sunlit
N/A
Visualization observer readout
Local Sidereal Time
16:50:29
Azimuth
Unknown
Elevation
Unknown
Doppler factor
Unknown
Orbital elements
Apogee altitude
1,526.544 km
Perigee altitude
1,489.412 km
Semi-major axis
7,886.115 km
Eccentricity
0.00235
Inclination
101.7564°
RAAN
43.4581°
Arg. of periapsis
95.6153°
True anomaly
292.79325°
Mean anomaly
293.0418°
Eccentric anomaly
292.91756°
Mean motion
3.09919 °/min
Orbital period
116.16 mins
BSTAR
0.00020032
Loading maneuver chart data...
Computing Atmospheric mass density...
Loading historical data...
Loading historical data...
Loading historical data...
Loading historical data...
Loading historical data...
Loading historical data...
Loading historical data...

Documentation

Showing up to 5 results
|